Content
SEND FEEDBACK

Daily
Averages
Monthly
Summary
United States of America

ASATDAS, GUAM


Home > North America > United States > Guam
Elevation: 186 meters     Latitude: 13 35N     Longitude: 144 56E

WEATHER
 
SELECT A DAY
Number of Records: 208,807;   Date Range: 1/1/95 - 7/7/14
 
SHARE

PRINT THIS DATA

[ ← Previous Day ]
WEATHER ALMANAC - 1 SEPTEMBER, 2013
[ Next Day → ]
[ °F ]   °C
Weather ElementAverageHighLow
Temperature27.8 °C31.1 °C (3:54 pm)25.6 °C (1:54 am)
Dewpoint24.5 °C26 °C (4:51 pm)23.9 °C (1:54 am)
Humidity82.3 %96 % (7:54 pm)65 % (3:54 pm)
Barometer1010.2 hPa1012.2 hPa (8:54 am)1008.8 hPa (3:54 pm)
Wind Speed5 km/h24.1 km/h (2:04 pm)
Weather ElementAverage
Visibility14.8 km
Wind DirectionSE (134.3 °)

Weather ElementTotal
Precipitation29.97 mm
Cooling Degree Days10.1 (Base 18.3)
Growing Degree Days18.4 (Base 10)
Averaged from 35 records on 1 September, 2013
WEATHER CONDITIONS BREAKOUT
WIND DIRECTION BREAKOUT
WEATHER BY HOUR - 1 SEPTEMBER, 2013
[ °F ]   °C
Local TimeTemperatureDewpointHumidityBarometerVisibilityWind DirectionWind SpeedGust SpeedPrecipitationEventsConditions
1:54 AM25.6 °C23.9 °C90 %1010.2 hPa16.1 kmCalmClear
2:54 AM26.7 °C24.4 °C87 %1009.8 hPa16.1 kmCalmClear
3:54 AM26.7 °C24.4 °C87 %1009.8 hPa16.1 kmNNE (30°)5.6 km/hClear
4:54 AM26.7 °C23.9 °C85 %1009.8 hPa16.1 kmNE (40°)5.6 km/hClear
5:54 AM26.7 °C23.9 °C85 %1010.2 hPa16.1 kmCalmClear
6:54 AM26.7 °C24.4 °C87 %1010.8 hPa16.1 kmCalmClear
7:54 AM29.4 °C24.4 °C74 %1011.9 hPa16.1 kmCalmClear
8:54 AM30 °C24.4 °C72 %1012.2 hPa16.1 kmCalmPartly Cloudy
9:54 AM29.4 °C24.4 °C74 %1011.9 hPa16.1 kmCalmMostly Cloudy
10:09 AM29 °C24 °C74 %1012.2 hPa16.1 kmCalmOvercast
10:54 AM30 °C25 °C74 %1011.2 hPa16.1 kmNorth (350°)7.4 km/hMostly Cloudy
11:54 AM30 °C25 °C74 %1010.8 hPa16.1 kmNNW (340°)11.1 km/hMostly Cloudy
12:54 PM29.4 °C25.6 °C80 %1010.2 hPa16.1 kmNNW (340°)11.1 km/h0 mmMostly Cloudy
1:13 PM30 °C24 °C70 %1010.5 hPa16.1 kmNNW (340°)7.4 km/hMostly Cloudy
1:23 PM30 °C25 °C74 %1010.2 hPa16.1 kmNNW (330°)5.6 km/hThunderstormThunderstorm
1:39 PM31 °C24 °C66 %1010.2 hPa16.1 kmCalmThunderstormThunderstorm
1:54 PM30 °C24.4 °C72 %1009.5 hPa16.1 kmNNE (20°)16.7 km/hThunderstormThunderstorm
2:04 PM27 °C24 °C84 %1009.8 hPa16.1 kmNorth (360°)24.1 km/h0 mmRainLight Rain
2:15 PM27 °C24 °C84 %1009.8 hPa16.1 kmNNW (330°)14.8 km/h0 mmRainLight Rain
2:48 PM28 °C24 °C79 %1009.8 hPa16.1 kmNW (310°)7.4 km/h0 mmMostly Cloudy
2:54 PM28.3 °C23.9 °C77 %1009.1 hPa16.1 kmNNW (340°)9.3 km/h0 mmScattered Clouds
3:54 PM31.1 °C23.9 °C65 %1008.8 hPa16.1 kmNorth (350°)7.4 km/hScattered Clouds
4:17 PM30 °C24 °C70 %1009.5 hPa16.1 kmVariable5.6 km/hOvercast
4:35 PM27 °C25 °C89 %1009.8 hPa1.9 kmNorth (360°)18.5 km/h1.27 mmRainHeavy Rain
4:43 PM26 °C24 °C89 %1009.8 hPa0.8 kmWSW (250°)5.6 km/h8.89 mmFog-RainHeavy Rain
4:51 PM27 °C26 °C94 %1009.8 hPa8 kmWest (260°)5.6 km/h9.4 mmRainRain
4:54 PM26.7 °C25.6 °C94 %1009.1 hPa8 kmCalm9.4 mmRainRain
5:22 PM26 °C24 °C89 %1009.5 hPa16.1 kmNorth (350°)5.6 km/h0.51 mmOvercast
5:54 PM26.7 °C25 °C90 %1009.1 hPa16.1 kmCalm0.51 mmPartly Cloudy
6:54 PM26.7 °C25 °C90 %1009.8 hPa16.1 kmCalmPartly Cloudy
7:54 PM25.6 °C25 °C96 %1010.5 hPa16.1 kmCalmPartly Cloudy
8:54 PM26.7 °C25 °C90 %1010.8 hPa16.1 kmCalmPartly Cloudy
9:54 PM26.1 °C25 °C94 %1011.2 hPa16.1 kmCalmPartly Cloudy
10:54 PM25.6 °C24.4 °C93 %1011.2 hPa16.1 kmCalmPartly Cloudy
11:54 PM26.1 °C24.4 °C90 %1010.5 hPa16.1 kmCalmPartly Cloudy
Hourly data recorded from PGUM, located 0 kilometers away from Asatdas, Guam







STORIES FROM OUR PARTNERS